| time (UTC) | temp F | wind direction | speed MPH | gust MPH | rain 1hr in | rain 24hr in | rain mn in | humidity % | barometer mb |
| 20260903113105 | 76 | 198 | 2.0 | 11.0 | 0.00 | 0.00 | 0.00 | 76 | 1008.6 |
| 20260903111616 | 77 | 203 | 2.0 | 8.0 | 0.00 | 0.00 | 0.00 | 75 | 1008.4 |
| 20260903110055 | 77 | 111 | 1.0 | 6.0 | 0.00 | 0.00 | 0.00 | 75 | 1008.3 |
| 20260903104605 | 77 | 118 | 1.0 | 8.0 | 0.00 | 0.00 | 0.00 | 74 | 1008.2 |
| 20260903103104 | 78 | 118 | 1.0 | 10.0 | 0.00 | 0.00 | 0.00 | 74 | 1008.3 |
| 20260903101556 | 78 | 356 | 1.0 | 8.0 | 0.00 | 0.00 | 0.00 | 73 | 1008.3 |
| 20260903100049 | 78 | 132 | 2.0 | 7.0 | 0.00 | 0.00 | 0.00 | 73 | 1008.3 |
| 20260903094557 | 79 | 233 | 2.0 | 7.0 | 0.00 | 0.00 | 0.00 | 72 | 1008.2 |
| 20260903093120 | 79 | 180 | 2.0 | 7.0 | 0.00 | 0.00 | 0.00 | 71 | 1008.2 |
| 20260903091551 | 80 | 118 | 1.0 | 6.0 | 0.00 | 0.00 | 0.00 | 70 | 1008.3 |
| 20260903090044 | 80 | 125 | 1.0 | 7.0 | 0.00 | 0.00 | 0.00 | 69 | 1008.2 |
| 20260903084541 | 80 | 123 | 3.0 | 7.0 | 0.00 | 0.00 | 0.00 | 69 | 1008.2 |
| 20260903083039 | 81 | 186 | 0.0 | 9.0 | 0.00 | 0.00 | 0.00 | 68 | 1008.2 |
| 20260903081544 | 81 | 139 | 1.0 | 7.0 | 0.00 | 0.00 | 0.00 | 67 | 1008.3 |
| 20260903080036 | 81 | 228 | 1.0 | 8.0 | 0.00 | 0.00 | 0.00 | 66 | 1008.3 |
| 20260903074536 | 82 | 156 | 1.0 | 6.0 | 0.00 | 0.00 | 0.00 | 65 | 1008.3 |
| 20260903073033 | 82 | 212 | 2.0 | 8.0 | 0.00 | 0.00 | 0.00 | 64 | 1008.2 |
| 20260903071530 | 83 | 245 | 3.0 | 7.0 | 0.00 | 0.00 | 0.00 | 63 | 1008.3 |
| 20260903070050 | 83 | 194 | 2.0 | 7.0 | 0.00 | 0.00 | 0.00 | 62 | 1008.3 |
| 20260903064526 | 83 | 288 | 2.0 | 9.0 | 0.00 | 0.00 | 0.00 | 61 | 1008.1 |
| 20260903063023 | 84 | 278 | 3.0 | 8.0 | 0.00 | 0.00 | 0.00 | 60 | 1008.1 |
| 20260903061521 | 85 | 242 | 3.0 | 9.0 | 0.00 | 0.00 | 0.00 | 57 | 1008.3 |
| 20260903060018 | 85 | 311 | 3.0 | 8.0 | 0.00 | 0.00 | 0.00 | 56 | 1008.2 |
| 20260903054522 | 86 | 136 | 2.0 | 8.0 | 0.00 | 0.00 | 0.00 | 56 | 1008.2 |
| 20260903053012 | 86 | 153 | 4.0 | 9.0 | 0.00 | 0.00 | 0.00 | 56 | 1008.1 |
| 20260903051510 | 87 | 236 | 5.0 | 12.0 | 0.00 | 0.00 | 0.00 | 53 | 1008.1 |
| 20260903050004 | 87 | 255 | 2.0 | 9.0 | 0.00 | 0.00 | 0.00 | 51 | 1008.0 |
| 20260903044505 | 88 | 146 | 1.0 | 5.0 | 0.00 | 0.00 | 0.00 | 51 | 1007.9 |
| 20260903043004 | 88 | 242 | 2.0 | 8.0 | 0.00 | 0.00 | 0.00 | 50 | 1007.9 |
| 20260903041506 | 88 | 15 | 1.0 | 8.0 | 0.00 | 0.00 | 0.00 | 50 | 1008.0 |
| 20260903040002 | 89 | 86 | 2.0 | 6.0 | 0.00 | 0.00 | 0.00 | 49 | 1008.0 |
| 20260903034502 | 89 | 146 | 1.0 | 7.0 | 0.00 | 0.00 | 0.00 | 48 | 1007.9 |
| 20260903033004 | 89 | 219 | 2.0 | 8.0 | 0.00 | 0.00 | 0.00 | 47 | 1008.0 |
| 20260903031600 | 90 | 121 | 2.0 | 6.0 | 0.00 | 0.00 | 0.00 | 46 | 1008.0 |
| 20260903030100 | 90 | 19 | 3.0 | 9.0 | 0.00 | 0.00 | 0.00 | 45 | 1007.8 |
| 20260903024600 | 90 | 246 | 1.0 | 7.0 | 0.00 | 0.00 | 0.00 | 44 | 1007.8 |
| 20260903023101 | 91 | 156 | 1.0 | 7.0 | 0.00 | 0.00 | 0.00 | 44 | 1007.7 |
| 20260903021559 | 91 | 111 | 0.0 | 7.0 | 0.00 | 0.00 | 0.00 | 44 | 1007.6 |
| 20260903020059 | 92 | 88 | 2.0 | 7.0 | 0.00 | 0.00 | 0.00 | 44 | 1007.3 |
| 20260903014621 | 92 | 147 | 2.0 | 9.0 | 0.00 | 0.00 | 0.00 | 43 | 1007.1 |
| 20260903013106 | 92 | 156 | 2.0 | 9.0 | 0.00 | 0.00 | 0.00 | 42 | 1007.0 |
| 20260903011555 | 93 | 133 | 0.0 | 2.0 | 0.00 | 0.00 | 0.00 | 41 | 1006.8 |
| 20260903010055 | 94 | 144 | 0.0 | 6.0 | 0.00 | 0.00 | 0.00 | 40 | 1006.7 |
| 20260903004558 | 95 | 120 | 1.0 | 6.0 | 0.00 | 0.00 | 0.00 | 39 | 1006.6 |
| 20260903003108 | 96 | 131 | 2.0 | 8.0 | 0.00 | 0.00 | 0.00 | 38 | 1006.6 |
| 20260903001553 | 97 | 124 | 1.0 | 7.0 | 0.00 | 0.00 | 0.00 | 36 | 1006.6 |
| 20260902234553 | 98 | 257 | 2.0 | 6.0 | 0.00 | 0.00 | 0.00 | 36 | 1006.4 |
| 20260902233052 | 98 | 103 | 1.0 | 6.0 | 0.00 | 0.00 | 0.00 | 35 | 1006.5 |
| 20260902231549 | 100 | 309 | 0.0 | 7.0 | 0.00 | 0.00 | 0.00 | 33 | 1006.5 |
| 20260902230054 | 100 | 167 | 2.0 | 6.0 | 0.00 | 0.00 | 0.00 | 33 | 1006.6 |
| 20260902224606 | 101 | 128 | 2.0 | 5.0 | 0.00 | 0.00 | 0.00 | 31 | 1006.7 |
| 20260902223057 | 101 | 224 | 0.0 | 10.0 | 0.00 | 0.00 | 0.00 | 31 | 1006.6 |
| 20260902221545 | 102 | 197 | 2.0 | 6.0 | 0.00 | 0.00 | 0.00 | 31 | 1006.9 |
| 20260902220043 | 102 | 326 | 2.0 | 9.0 | 0.00 | 0.00 | 0.00 | 32 | 1006.9 |
| 20260902214608 | 102 | 290 | 1.0 | 10.0 | 0.00 | 0.00 | 0.00 | 33 | 1007.0 |
| 20260902213041 | 102 | 105 | 2.0 | 5.0 | 0.00 | 0.00 | 0.00 | 32 | 1007.2 |
| 20260902211537 | 102 | 113 | 2.0 | 7.0 | 0.00 | 0.00 | 0.00 | 33 | 1007.3 |
| 20260902210037 | 102 | 257 | 3.0 | 8.0 | 0.00 | 0.00 | 0.00 | 31 | 1007.5 |
| 20260902204533 | 102 | 188 | 0.0 | 10.0 | 0.00 | 0.00 | 0.00 | 35 | 1007.8 |
| 20260902203030 | 102 | 255 | 2.0 | 6.0 | 0.00 | 0.00 | 0.00 | 34 | 1007.9 |
| 20260902201533 | 101 | 167 | 2.0 | 6.0 | 0.00 | 0.00 | 0.00 | 33 | 1008.2 |
| 20260902200024 | 101 | 187 | 2.0 | 9.0 | 0.00 | 0.00 | 0.00 | 35 | 1008.4 |
| 20260902194534 | 101 | 108 | 2.0 | 6.0 | 0.00 | 0.00 | 0.00 | 37 | 1008.5 |
| 20260902193021 | 101 | 172 | 0.0 | 11.0 | 0.00 | 0.00 | 0.00 | 36 | 1008.8 |
| 20260902191518 | 101 | 158 | 3.0 | 7.0 | 0.00 | 0.00 | 0.00 | 37 | 1008.9 |
| 20260902190015 | 100 | 326 | 3.0 | 9.0 | 0.00 | 0.00 | 0.00 | 37 | 1009.2 |
| 20260902184512 | 100 | 83 | 1.0 | 8.0 | 0.00 | 0.00 | 0.00 | 38 | 1009.5 |
| 20260902183010 | 100 | 150 | 1.0 | 5.0 | 0.00 | 0.00 | 0.00 | 36 | 1009.7 |
| 20260902181507 | 99 | 300 | 2.0 | 4.0 | 0.00 | 0.00 | 0.00 | 38 | 1010.1 |
| 20260902180008 | 99 | 232 | 3.0 | 8.0 | 0.00 | 0.00 | 0.00 | 38 | 1010.3 |
| 20260902174514 | 98 | 176 | 1.0 | 5.0 | 0.00 | 0.00 | 0.00 | 40 | 1010.5 |
| 20260902173001 | 98 | 241 | 2.0 | 5.0 | 0.00 | 0.00 | 0.00 | 40 | 1010.7 |
| 20260902171600 | 98 | 120 | 2.0 | 6.0 | 0.00 | 0.00 | 0.00 | 41 | 1010.8 |
| 20260902170058 | 96 | 302 | 1.0 | 6.0 | 0.00 | 0.00 | 0.00 | 43 | 1011.0 |
| 20260902164554 | 95 | 208 | 2.0 | 7.0 | 0.00 | 0.00 | 0.00 | 44 | 1011.2 |
| 20260902163049 | 94 | 233 | 2.0 | 6.0 | 0.00 | 0.00 | 0.00 | 45 | 1011.3 |
| 20260902161546 | 94 | 221 | 1.0 | 5.0 | 0.00 | 0.00 | 0.00 | 46 | 1011.4 |
| 20260902160042 | 92 | 195 | 2.0 | 7.0 | 0.00 | 0.00 | 0.00 | 49 | 1011.4 |
| 20260902154538 | 91 | 152 | 1.0 | 7.0 | 0.00 | 0.00 | 0.00 | 50 | 1011.5 |
| 20260902153035 | 89 | 235 | 3.0 | 9.0 | 0.00 | 0.00 | 0.00 | 52 | 1011.5 |
| 20260902151530 | 88 | 139 | 1.0 | 8.0 | 0.00 | 0.00 | 0.00 | 54 | 1011.6 |
| 20260902150028 | 86 | 156 | 2.0 | 9.0 | 0.00 | 0.00 | 0.00 | 57 | 1011.6 |
| 20260902144529 | 85 | 235 | 4.0 | 9.0 | 0.00 | 0.00 | 0.00 | 58 | 1011.7 |
| 20260902143027 | 84 | 281 | 1.0 | 8.0 | 0.00 | 0.00 | 0.00 | 61 | 1011.6 |
| 20260902141532 | 83 | 122 | 2.0 | 7.0 | 0.00 | 0.00 | 0.00 | 63 | 1011.7 |
| 20260902140025 | 81 | 167 | 2.0 | 9.0 | 0.00 | 0.00 | 0.00 | 65 | 1011.6 |
| 20260902134524 | 81 | 149 | 3.0 | 8.0 | 0.00 | 0.00 | 0.00 | 66 | 1011.6 |
| 20260902133025 | 80 | 347 | 1.0 | 9.0 | 0.00 | 0.00 | 0.00 | 68 | 1011.6 |
| 20260902131522 | 79 | 229 | 1.0 | 6.0 | 0.00 | 0.00 | 0.00 | 69 | 1011.6 |
| 20260902130026 | 78 | 232 | 2.0 | 6.0 | 0.00 | 0.00 | 0.00 | 69 | 1011.6 |
| 20260902124519 | 78 | 297 | 2.0 | 6.0 | 0.00 | 0.00 | 0.00 | 69 | 1011.4 |
| 20260902123017 | 78 | 290 | 1.0 | 6.0 | 0.00 | 0.00 | 0.00 | 69 | 1011.2 |
| 20260902121515 | 78 | 64 | 1.0 | 7.0 | 0.00 | 0.00 | 0.00 | 69 | 1011.0 |
| 20260902120013 | 78 | 204 | 2.0 | 6.0 | 0.00 | 0.00 | 0.00 | 68 | 1010.9 |
| 20260902114511 | 79 | 173 | 1.0 | 6.0 | 0.00 | 0.00 | 0.00 | 67 | 1010.7 |